Location: Forli
(44.2227°N, 12.0407°E)
Time: 14:43:01
(UTC+02:00)

UWE-3 - Pass Details

Date: 21 April 2026
Orbit: 542 x 613 km, 97.9° (Epoch: 10 May)

Event Time Altitude Azimuth Distance (km) Brightness Sun altitude
Rises 03:53:57 0° 16° (NNE) 2,731 ? -22.8°
Reaches altitude 10° 03:56:07 10° 19° (NNE) 1,825 ? -22.6°
Maximum altitude 04:00:02 63° 101° (ESE) 612 ? -22.1°
Enters shadow 04:00:40 53° 148° (SSE) 672 ? -22.0°
